2024-252A

Last updated on Thu Jan 23 2025 00:02:05 GMT+0000 (Coordinated Universal Time)

1 62454U 24252A 25021.66139293 -.00000110 00000+0 -11476-1 0 9998 2 62454 11.1698 355.9791 7988891 187.7925 139.9006 1.09809624 262
UTC large
Height (km)
Speed (km/s)
/
Latitude / Longitude
Inclination (degrees)
Orbital Period (minutes)
Azimuth
Elevation
Range (km)
Doppler Factor

Next 0 passes for location: London (51.5072 / 0.1276)

Sorry there are no passes over London.